Tucson, AZ

3:48 PM MST on December 10, 2016 (GMT -0700)
Tucson International

Weather History for KTUS - January, 2012

Change the Weather History Date:

Tuesday, January 3, 2012

  Actual Average Record
Temperature  
Mean Temperature 64 °F 52 °F  
Max Temperature 79 °F 64 °F 87 °F (1896)
Min Temperature 48 °F 39 °F 17 °F (1911)
Degree Days  
Heating Degree Days 1 13  
Month to date heating degree days 4 39  
Since 1 July heating degree days 682 650  
Cooling Degree Days 0 0  
Month to date cooling degree days 2 0  
Year to date cooling degree days 2 0  
Growing Degree Days 14 (Base 50)    
Moisture  
Dew Point 25 °F    
Average Humidity 33    
Maximum Humidity 54    
Minimum Humidity 11    
Precipitation  
Precipitation 0.00 in 0.03 in 0.69 in (1957)
Month to date precipitation 0.00 0.09  
Year to date precipitation 0.00 0.09  
Snow  
Snow 0.00 in - - ()
Month to date snowfall 0.0  
Snow Depth 0.00 in    
Sea Level Pressure  
Sea Level Pressure 30.22 in    
Wind  
Wind Speed 7 mph (SE)    
Max Wind Speed 22 mph    
Max Gust Speed 28 mph    
Visibility 10 miles    
Events      
T = Trace of Precipitation, MM = Missing Value Source: NWS Daily Summary

Daily Weather History Graph

Daily Weather History Graph

Search for Another Location

Airport or City:

Trip Planner

Search our weather history database for the weather conditions in past years. The results will help you decide how hot, cold, wet, or windy it might be!

Date:

Astronomy

Jan. 03, 2012 Rise Set
Actual Time 7:25 AM MST 5:31 PM MST
Civil Twilight 6:58 AM MST 5:58 PM MST
Nautical Twilight 6:27 AM MST 6:28 PM MST
Astronomical Twilight 5:57 AM MST 6:58 PM MST
Moon 1:16 PM MST (1/3) 2:24 AM MST (1/3)
Length of Visible Light 11h 00m
Length of Day
10h 06m
Waxing Gibbous, 73% of the Moon is Illuminated
Jan 3
Waxing Gibbous
Jan 9
Full
Jan 16
Last Quarter
Jan 23
New
Jan 30
First Quarter

Hourly Weather History & Observations

Time (MST) Temp. Dew Point Humidity Pressure Visibility Wind Dir Wind Speed Gust Speed Precip Events Conditions
12:53 AM 61.0 °F 21.0 °F 21% 30.22 in 10.0 mi ESE 17.3 mph 26.5 mph N/A   Clear
1:53 AM 59.0 °F 21.0 °F 23% 30.22 in 10.0 mi SE 12.7 mph - N/A   Clear
2:53 AM 57.0 °F 21.0 °F 25% 30.23 in 10.0 mi SE 13.8 mph - N/A   Clear
3:53 AM 55.9 °F 21.0 °F 26% 30.23 in 10.0 mi ESE 10.4 mph - N/A   Clear
4:53 AM 54.0 °F 21.9 °F 29% 30.22 in 10.0 mi ESE 5.8 mph - N/A   Clear
5:53 AM 50.0 °F 24.1 °F 36% 30.25 in 10.0 mi SE 11.5 mph - N/A   Clear
6:53 AM 52.0 °F 21.9 °F 31% 30.27 in 10.0 mi ESE 5.8 mph - N/A   Clear
7:53 AM 48.0 °F 25.0 °F 41% 30.29 in 10.0 mi SE 9.2 mph - N/A   Clear
8:53 AM 52.0 °F 25.0 °F 35% 30.30 in 10.0 mi SSE 6.9 mph - N/A   Clear
9:53 AM 59.0 °F 24.1 °F 26% 30.30 in 10.0 mi SE 8.1 mph - N/A   Clear
10:53 AM 63.0 °F 24.1 °F 23% 30.28 in 10.0 mi SE 10.4 mph - N/A   Clear
11:53 AM 70.0 °F 21.9 °F 16% 30.23 in 10.0 mi ESE 4.6 mph - N/A   Clear
12:53 PM 73.9 °F 23.0 °F 15% 30.17 in 10.0 mi ESE 3.5 mph - N/A   Clear
1:53 PM 75.9 °F 21.0 °F 13% 30.14 in 10.0 mi Calm Calm - N/A   Clear
2:53 PM 79.0 °F 19.9 °F 11% 30.12 in 10.0 mi Calm Calm - N/A   Clear
3:53 PM 77.0 °F 21.9 °F 13% 30.13 in 10.0 mi NNW 3.5 mph - N/A   Clear
4:53 PM 75.0 °F 27.0 °F 17% 30.13 in 10.0 mi NW 3.5 mph - N/A   Clear
5:53 PM 70.0 °F 27.0 °F 20% 30.17 in 10.0 mi North 6.9 mph - N/A   Clear
6:53 PM 63.0 °F 28.9 °F 28% 30.20 in 10.0 mi WSW 4.6 mph - N/A   Clear
7:53 PM 60.1 °F 27.0 °F 28% 30.23 in 10.0 mi West 5.8 mph - N/A   Clear
8:53 PM 55.9 °F 28.0 °F 34% 30.24 in 10.0 mi South 4.6 mph - N/A   Clear
9:53 PM 53.1 °F 30.0 °F 41% 30.24 in 10.0 mi SSE 3.5 mph - N/A   Clear
10:53 PM 48.9 °F 32.0 °F 52% 30.25 in 10.0 mi SE 4.6 mph - N/A   Clear
11:53 PM 48.0 °F 32.0 °F 54% 30.22 in 10.0 mi South 6.9 mph - N/A   Clear